x

Sentry Shoal (46131) Wave Buoy

9:00pm - Sun 21st Dec 2014 All times are PST. -8 hours from GMT.

  • Sig Wave height 0.7ft
  • Peak Period 3s
  • Wind
    7mph, 9mph gusts
  • Sea Temp 47°f
  • 空気 Temp 47°f
  • Sea Pressure 1017.2mb
  • Sentry Shoal
  • Sentry Shoal

More Historic Weather Station data

Upgrade to MSW Pro to gain access to the past 30 days of data for over 8000 Wavebouys and Weather Stations around the globe.

Join Pro

Comparision Forecast

View Surf forecast
   
Sun 12/21 9:00pm 0.7ft 3s 7 9 mph 1017.2mb 47f 47f
8:00pm 1ft 3s 9 13 mph 1016.1mb 48f 47f
7:00pm 0.7ft 3s 16 20 mph 1015mb 48f 49f
6:00pm 1ft 3s 9
mph
1014.2mb 48f 46f
5:00pm 1ft 3s 7 9 mph 1013.8mb 48f 48f
4:00pm 1ft 2s 16 18 mph 1012.3mb 48f 48f
3:00pm 0.7ft 2s 11 16 mph 1012.2mb 48f 48f
2:00pm 0.7ft 2s 9 11 mph 1012mb 48f 47f
1:00pm 0.7ft 2s 13 16 mph 1011.6mb 48f 47f
12:00pm 0.3ft 2s 11 13 mph 1011.4mb 48f 46f
11:00am 0.3ft 4s 9 11 mph 1010.8mb 48f 45f
10:00am  -  8s 9 11 mph 1010.7mb 48f 46f
9:00am 0.3ft 7s 7
mph
1009.5mb 47f 45f
8:00am 0.3ft 8s 2 4 mph 1008.8mb 47f 45f
7:00am 0.3ft 7s 4 7 mph 1007mb 48f 45f
6:00am 0.3ft 4s  -  2 mph 1006mb 48f 45f
5:00am 0.3ft 5s 7
mph
1005.2mb 48f 45f
4:00am 0.3ft 5s 4
mph
1004.3mb 48f 45f
3:00am 0.3ft 7s 4 7 mph 1003.3mb 48f 46f
2:00am 0.3ft 3s 4
mph
1002.1mb 48f 45f
1:00am 0.3ft 2s 4 7 mph 999.9mb 48f 45f
12:00am 0.7ft 4s 7
mph
998.7mb 48f 45f
Sat 12/20 11:00pm 1.3ft 4s 9 11 mph 996.9mb 48f 45f
10:00pm 1.6ft 5s 11 13 mph 994.8mb 47f 44f
9:00pm 2.5ft 5s 9
mph
993.5mb 47f 45f
8:00pm 3ft 5s 7 9 mph 992.4mb 48f 45f
7:00pm 4ft 5s 9 13 mph 992.2mb 48f 45f
6:00pm 4.5ft 5s 18 22 mph 991.3mb 48f 47f
5:00pm 5ft 6s 18 20 mph 991.5mb 48f 47f
4:00pm 5ft 6s 18 20 mph 992mb 48f 47f
3:00pm 5ft 6s 18 22 mph 992.4mb 48f 47f
2:00pm 5.5ft 7s 22 29 mph 993.3mb 48f 47f
1:00pm 6ft 6s 31 36 mph 994.1mb 48f 47f
12:00pm 6.5ft 6s 31 36 mph 995.3mb 48f 48f
11:00am 6.5ft 7s 27 38 mph 996.5mb 48f 48f
10:00am 6ft 6s 34 43 mph 997mb 48f 48f
9:00am 6ft 5s 27 31 mph 997.8mb 47f 47f
8:00am 6ft 6s 29 36 mph 997.9mb 47f 47f
7:00am 7ft 6s 29 34 mph 998.8mb 47f 47f
6:00am 7.5ft 6s 29 34 mph 999.1mb 47f 47f
5:00am 6.5ft 5s 34 40 mph 999.5mb 47f 47f
4:00am 6.5ft 6s 34 43 mph 1000.4mb 47f 47f
3:00am 6.5ft 5s 31 38 mph 1001.8mb 47f 47f
2:00am 6ft 5s 34 40 mph 1001.7mb 47f 49f
1:00am 6ft 5s 29 34 mph 1002.9mb 47f 48f
12:00am 6.5ft 6s 29 36 mph 1003.7mb 47f 48f
Fri 12/19 11:00pm 5.5ft 6s 27 31 mph 1005.2mb 47f 49f
10:00pm 5ft 5s 27 34 mph 1006.1mb 47f 48f
9:00pm 5ft 5s 29 36 mph 1006.3mb 47f 48f
8:00pm 4.5ft 5s 27 34 mph 1007.3mb 47f 48f
7:00pm 4.5ft 5s 20 27 mph 1008.2mb 47f 47f
6:00pm 5ft 5s 29 34 mph 1008.1mb 47f 47f
5:00pm 4.5ft 5s 29 36 mph 1008.4mb 47f 48f
4:00pm 3.5ft 4s 22 27 mph 1008.5mb 47f 48f
3:00pm 4ft 4s 18 22 mph 1008.8mb 47f 47f
2:00pm 4ft 4s 27 34 mph 1008.1mb 47f 47f
1:00pm 2.5ft 4s 27 31 mph 1008.4mb 47f 47f
12:00pm 2ft 3s 20 25 mph 1008.9mb 47f 47f
11:00am 2ft 4s 13 16 mph 1008.9mb 47f 47f
10:00am 2.5ft 4s 20 25 mph 1008.4mb 47f 47f
9:00am 2ft 4s 16 18 mph 1007.5mb 48f 47f
8:00am 2.5ft 4s 18 25 mph 1006.3mb 48f 48f
7:00am 2.5ft 4s 18 25 mph 1005.9mb 48f 48f
6:00am 3ft 4s 18 22 mph 1005.4mb 48f 49f
5:00am 3ft 4s 20 25 mph 1004.8mb 48f 49f
4:00am 3.5ft 5s 18 22 mph 1004.3mb 48f 49f
3:00am 4ft 5s 22 29 mph 1003.7mb 48f 49f
2:00am 4ft 5s 20 25 mph 1003.7mb 48f 49f
1:00am 4.5ft 5s 22 27 mph 1002.5mb 48f 48f
12:00am 5.5ft 5s 25 29 mph 1002.1mb 48f 49f
Thu 12/18 11:00pm 6ft 6s 27 31 mph 1001.6mb 48f 49f
10:00pm 6ft 5s 29 36 mph 1001mb 48f 49f
9:00pm 6ft 6s 27 36 mph 1001.4mb 48f 49f
8:00pm 5ft 6s 25 29 mph 1001.5mb 48f 49f
7:00pm 6ft 6s 25 31 mph 1001.2mb 48f 48f
6:00pm 5.5ft 5s 22 29 mph 1002.1mb 48f 47f
5:00pm 5.5ft 5s 22 29 mph 1002.7mb 48f 47f
4:00pm 5ft 5s 25 29 mph 1003.3mb 48f 47f
3:00pm 4.5ft 5s 25 31 mph 1004mb 48f 47f
2:00pm 4.5ft 5s 25 31 mph 1005mb 48f 47f
1:00pm 4.5ft 4s 22 27 mph 1006.3mb 48f 46f
12:00pm 4.5ft 5s 25 31 mph 1007.6mb 48f 46f
11:00am 4.5ft 5s 27 34 mph 1008.6mb 48f 46f
10:00am 3.5ft 4s 18 22 mph 1009.7mb 48f 46f
9:00am 3ft 4s 20 25 mph 1009.8mb 48f 46f
8:00am 1.6ft 3s 25 29 mph 1010.1mb 48f 46f
7:00am 1.3ft 3s 16 20 mph 1010.4mb 48f 46f